Location: Unspecified
(35.7250°N, 0.0000°E)
Time: 14:44:06
(UTC+00:00)

Tiros 1 - Pass Details

Date: 01 July 2019
Orbit: 630 x 664 km, 48.4° (Epoch: 16 July)

Event Time Altitude Azimuth Distance (km) Brightness Sun altitude
Rises 23:54:12 0° 308° (NW) 2,954 11.1 -31.1°
Reaches altitude 10° 23:57:05 10° 325° (NW) 2,036 10.3 -31.1°
Maximum altitude 00:00:35 20° 13° (NNE) 1,459 9.6 -31.1°
Drops below altitude 10° 00:04:04 10° 62° (ENE) 2,019 10.0 -31.1°
Sets 00:06:54 0° 79° (E) 2,921 10.7 -31.1°
